Regional Weather Roundup
Issued by NWS

Home | Current Version | Previous Version | Text Only | Print | Product List | Glossary On
Versions: 1 2 3 4 5 6 7 8 9 10 11 12 13 14 15 16 17 18 19 20 21 22 23 24 25 26 27
000
ASUS44 KBMX 272210
RWRAL

ALABAMA REGIONAL WEATHER ROUNDUP
NATIONAL WEATHER SERVICE BIRMINGHAM AL
400 PM CST MON FEB 27 2017

NOTE: "FAIR" INDICATES FEW OR NO CLOUDS BELOW 12,000 FEET
WITH NO SIGNIFICANT WEATHER AND/OR OBSTRUCTIONS TO VISIBILITY.

THE REMARK "TC" DENOTES TEMPERATURE IN DEGREES CELSIUS.

ALZ001>011-014-016>018-020-272300-
NORTH ALABAMA

CITY           SKY/WX    TMP DP  RH WIND       PRES   REMARKS
MUSCLE SHOALS  CLOUDY    60  48  64 E5        30.16S
HUNTSVILLE     CLOUDY    58  50  75 SE8       30.17S
DECATUR        CLOUDY    57  51  80 SE6       30.17S
HALEYVILLE     PTSUNNY   57  50  77 S7        30.20R
GADSDEN        MOSUNNY   58  49  72 SE6       30.20F
$$

ALZ012-013-022-023-030>036-040>044-272300-
WEST CENTRAL ALABAMA

CITY           SKY/WX    TMP DP  RH WIND       PRES   REMARKS
TUSCALOOSA     CLOUDY    58  55  90 NW5       30.20R
$$

ALZ015-024>027-033>036-040>044-272300-
CENTRAL ALABAMA

CITY           SKY/WX    TMP DP  RH WIND       PRES   REMARKS
BIRMINGHAM     CLOUDY    57  51  80 E6        30.21R
MONTGOMERY     CLOUDY    56  52  86 NE10      30.20F
SHELBY CO ARPT CLOUDY    56  54  93 SE5       30.20R
MAXWELL AFB    CLOUDY    55  55  97 E10       30.18R
GREENVILLE     RAIN      53  51  93 E13       30.18F FOG
$$

ALZ019-021-028-029-037-038-045>048-272300-
EAST CENTRAL ALABAMA

CITY           SKY/WX    TMP DP  RH WIND       PRES   REMARKS
ANNISTON       CLOUDY    55  49  80 E7        30.20S
ALEXANDER CITY CLOUDY    51  50  97 S5        30.19F
AUBURN         LGT RAIN  51  50  96 SE9       30.25F
$$

ALZ051>064-272300-
SOUTHWEST ALABAMA

CITY           SKY/WX    TMP DP  RH WIND       PRES   REMARKS
MOBILE         CLOUDY    61  55  81 N16       30.19R
BROOKLEY FIELD CLOUDY    65  58  78 N12G20    30.20R
EVERGREEN      LGT RAIN  54  52  93 E12       30.21F FOG
$$

ALZ049-050-065>069-272300-
SOUTHEAST ALABAMA

CITY           SKY/WX    TMP DP  RH WIND       PRES   REMARKS
DOTHAN         CLOUDY    70  64  81 E3        30.22R
OZARK          LGT RAIN  56  54  92 NW9       30.20R
TROY           HVY RAIN  53  53 100 E10       30.24S FOG
EUFAULA        CLOUDY    63  46  54 N8        30.23R
$$




USA.gov is the U.S. government's official web portal to all federal, state and local government web resources and services.